TimeCST,TemperatureF,Dew PointF,Humidity,Sea Level PressureIn,VisibilityMPH,Wind Direction,Wind SpeedMPH,Gust SpeedMPH,PrecipitationIn,Events,Conditions,WindDirDegrees,DateUTC
12:54 AM,39.0,25.0,57,30.08,10.0,WNW,4.6,-,N/A,,Mostly Cloudy,300,2013-02-15 06:54:00
1:54 AM,37.0,25.0,62,30.09,10.0,NW,8.1,-,N/A,,Clear,320,2013-02-15 07:54:00
2:54 AM,36.0,26.1,67,30.12,10.0,NNW,8.1,-,N/A,,Clear,340,2013-02-15 08:54:00
3:54 AM,34.0,26.1,73,30.13,10.0,NNW,11.5,18.4,N/A,,Clear,330,2013-02-15 09:54:00
4:54 AM,32.0,25.0,75,30.15,10.0,NW,8.1,-,N/A,,Clear,320,2013-02-15 10:54:00
5:54 AM,32.0,24.1,73,30.18,10.0,NW,10.4,-,N/A,,Clear,320,2013-02-15 11:54:00
6:54 AM,30.9,21.9,69,30.21,10.0,NW,11.5,-,N/A,,Overcast,320,2013-02-15 12:54:00
7:13 AM,30.2,21.2,69,30.22,10.0,NW,15.0,20.7,N/A,,Overcast,310,2013-02-15 13:13:00
7:54 AM,30.0,19.0,64,30.25,10.0,NW,18.4,24.2,N/A,,Mostly Cloudy,320,2013-02-15 13:54:00
8:54 AM,30.0,19.0,64,30.28,10.0,NW,15.0,-,N/A,,Partly Cloudy,320,2013-02-15 14:54:00
9:54 AM,32.0,15.1,50,30.29,10.0,NW,13.8,-,N/A,,Clear,320,2013-02-15 15:54:00
11:54 AM,35.1,12.9,40,30.28,10.0,WNW,11.5,20.7,N/A,,Clear,300,2013-02-15 17:54:00
12:54 PM,36.0,12.9,39,30.26,10.0,WNW,12.7,-,N/A,,Clear,290,2013-02-15 18:54:00
1:54 PM,37.0,12.0,36,30.25,10.0,NW,10.4,-,N/A,,Clear,320,2013-02-15 19:54:00
2:54 PM,39.0,10.9,32,30.25,10.0,NNW,13.8,-,N/A,,Clear,340,2013-02-15 20:54:00
3:54 PM,39.0,12.9,34,30.25,10.0,NNW,8.1,-,N/A,,Clear,340,2013-02-15 21:54:00
4:54 PM,37.0,12.9,37,30.25,10.0,WNW,4.6,-,N/A,,Clear,290,2013-02-15 22:54:00
5:54 PM,34.0,14.0,44,30.26,10.0,WNW,8.1,-,N/A,,Partly Cloudy,300,2013-02-15 23:54:00
6:54 PM,32.0,15.1,50,30.26,10.0,WNW,6.9,-,N/A,,Clear,300,2013-02-16 00:54:00
7:54 PM,32.0,15.1,50,30.25,10.0,Calm,Calm,-,N/A,,Mostly Cloudy,0,2013-02-16 01:54:00
8:54 PM,32.0,18.0,56,30.26,10.0,West,5.8,-,N/A,,Overcast,280,2013-02-16 02:54:00
9:54 PM,30.9,15.1,52,30.26,10.0,NNW,17.3,23.0,N/A,,Overcast,340,2013-02-16 03:54:00
10:54 PM,28.0,15.1,58,30.26,10.0,North,8.1,-,N/A,,Clear,360,2013-02-16 04:54:00
11:54 PM,27.0,14.0,58,30.25,10.0,NNW,8.1,-,N/A,,Clear,340,2013-02-16 05:54:00